| time (UTC) | temp C | wind direction | speed KPH | gust KPH | rain 1hr cm | rain 24hr cm | rain mn cm | humidity % | barometer mb |
| 20260505121536 | 7 | 0 | 0.0 | 0.0 | 0.00 | 0.00 | 0.00 | 92 | 1016.7 |
| 20260505120044 | 6 | 0 | 0.0 | 1.6 | 0.00 | 0.00 | 0.00 | 95 | 1016.5 |
| 20260505114542 | 5 | 360 | 0.0 | 4.8 | 0.00 | 0.00 | 0.00 | 97 | 1016.5 |
| 20260505113042 | 4 | 0 | 0.0 | 0.0 | 0.00 | 0.00 | 0.00 | 96 | 1016.4 |
| 20260505111541 | 3 | 0 | 0.0 | 0.0 | 0.00 | 0.00 | 0.00 | 94 | 1016.3 |
| 20260505101552 | 4 | 0 | 0.0 | 1.6 | 0.00 | 0.00 | 0.00 | 94 | 1016.1 |
| 20260505100038 | 4 | 0 | 0.0 | 0.0 | 0.00 | 0.00 | 0.00 | 94 | 1016.2 |
| 20260505094539 | 4 | 0 | 0.0 | 4.8 | 0.00 | 0.00 | 0.00 | 93 | 1016.2 |
| 20260505093044 | 5 | 0 | 0.0 | 0.0 | 0.00 | 0.00 | 0.00 | 93 | 1016.1 |
| 20260505091539 | 5 | 0 | 0.0 | 0.0 | 0.00 | 0.00 | 0.00 | 93 | 1015.9 |
| 20260505090055 | 5 | 0 | 0.0 | 0.0 | 0.00 | 0.00 | 0.00 | 93 | 1015.8 |
| 20260505084550 | 5 | 0 | 0.0 | 0.0 | 0.00 | 0.00 | 0.00 | 93 | 1015.7 |
| 20260505083038 | 5 | 0 | 0.0 | 0.0 | 0.00 | 0.00 | 0.00 | 93 | 1015.7 |
| 20260505081547 | 5 | 0 | 0.0 | 0.0 | 0.00 | 0.00 | 0.00 | 92 | 1015.6 |
| 20260505080042 | 6 | 0 | 0.0 | 0.0 | 0.00 | 0.00 | 0.00 | 92 | 1015.5 |
| 20260505074542 | 6 | 0 | 0.0 | 0.0 | 0.00 | 0.00 | 0.00 | 92 | 1015.4 |
| 20260505073041 | 6 | 0 | 0.0 | 0.0 | 0.00 | 0.00 | 0.00 | 91 | 1015.2 |
| 20260505071537 | 6 | 0 | 0.0 | 1.6 | 0.00 | 0.00 | 0.00 | 91 | 1015.1 |
| 20260505070042 | 6 | 0 | 0.0 | 1.6 | 0.00 | 0.00 | 0.00 | 90 | 1015.3 |
| 20260505064536 | 6 | 0 | 0.0 | 3.2 | 0.00 | 0.00 | 0.00 | 89 | 1015.3 |
| 20260505063039 | 6 | 0 | 0.0 | 0.0 | 0.00 | 0.00 | 0.00 | 89 | 1015.4 |
| 20260505061546 | 7 | 0 | 0.0 | 1.6 | 0.00 | 0.00 | 0.00 | 88 | 1015.5 |
| 20260505060039 | 7 | 0 | 0.0 | 0.0 | 0.00 | 0.00 | 0.00 | 87 | 1015.6 |
| 20260505054541 | 7 | 0 | 0.0 | 3.2 | 0.00 | 0.00 | 0.00 | 87 | 1015.5 |
| 20260505053048 | 7 | 0 | 0.0 | 0.0 | 0.00 | 0.00 | 0.00 | 86 | 1015.6 |
| 20260505051536 | 8 | 0 | 0.0 | 1.6 | 0.00 | 0.00 | 0.00 | 85 | 1015.6 |
| 20260505041535 | 9 | 0 | 0.0 | 3.2 | 0.00 | 0.00 | 0.00 | 81 | 1015.7 |
| 20260505040036 | 9 | 0 | 0.0 | 0.0 | 0.00 | 0.00 | 0.00 | 79 | 1015.7 |
| 20260505034542 | 10 | 0 | 0.0 | 0.0 | 0.00 | 0.00 | 0.00 | 78 | 1015.7 |
| 20260505033101 | 10 | 0 | 0.0 | 0.0 | 0.00 | 0.00 | 0.00 | 77 | 1015.9 |
| 20260505031539 | 10 | 0 | 0.0 | 0.0 | 0.00 | 0.00 | 0.00 | 76 | 1015.9 |
| 20260505030036 | 10 | 0 | 0.0 | 0.0 | 0.00 | 0.00 | 0.00 | 75 | 1015.9 |
| 20260505024536 | 11 | 0 | 0.0 | 0.0 | 0.00 | 0.00 | 0.00 | 73 | 1015.9 |
| 20260505023049 | 11 | 0 | 0.0 | 0.0 | 0.00 | 0.00 | 0.00 | 72 | 1015.9 |
| 20260505021537 | 12 | 0 | 0.0 | 3.2 | 0.00 | 0.00 | 0.00 | 70 | 1015.8 |
| 20260505020038 | 12 | 0 | 0.0 | 1.6 | 0.00 | 0.00 | 0.00 | 67 | 1015.6 |
| 20260505014536 | 12 | 0 | 0.0 | 0.0 | 0.00 | 0.00 | 0.00 | 66 | 1015.6 |
| 20260505013042 | 13 | 0 | 1.6 | 6.4 | 0.00 | 0.00 | 0.00 | 65 | 1015.4 |
| 20260505011541 | 14 | 0 | 0.0 | 3.2 | 0.00 | 0.00 | 0.00 | 59 | 1015.3 |
| 20260505010042 | 15 | 360 | 0.0 | 3.2 | 0.00 | 0.00 | 0.00 | 56 | 1015.2 |
| 20260505004549 | 16 | 360 | 0.0 | 3.2 | 0.00 | 0.00 | 0.00 | 52 | 1015.0 |
| 20260505003038 | 17 | 360 | 1.6 | 8.0 | 0.00 | 0.00 | 0.00 | 44 | 1014.9 |
| 20260505001542 | 18 | 206 | 8.0 | 14.5 | 0.00 | 0.00 | 0.00 | 43 | 1014.9 |
| 20260505000045 | 18 | 240 | 9.7 | 16.1 | 0.00 | 0.00 | 0.00 | 42 | 1014.8 |
| 20260504234603 | 18 | 360 | 11.3 | 22.5 | 0.00 | 0.00 | 0.00 | 40 | 1014.6 |
| 20260504233036 | 19 | 360 | 9.7 | 24.1 | 0.00 | 0.00 | 0.00 | 39 | 1014.5 |
| 20260504231548 | 20 | 360 | 14.5 | 22.5 | 0.00 | 0.00 | 0.00 | 38 | 1014.4 |
| 20260504230043 | 20 | 360 | 12.9 | 27.4 | 0.00 | 0.00 | 0.00 | 39 | 1014.4 |
| 20260504224542 | 21 | 228 | 11.3 | 32.2 | 0.00 | 0.00 | 0.00 | 39 | 1014.3 |
| 20260504223039 | 21 | 227 | 12.9 | 27.4 | 0.00 | 0.00 | 0.00 | 38 | 1014.3 |
| 20260504221535 | 21 | 248 | 22.5 | 37.0 | 0.00 | 0.00 | 0.00 | 37 | 1014.4 |
| 20260504220050 | 21 | 223 | 20.9 | 40.2 | 0.00 | 0.00 | 0.00 | 37 | 1014.3 |
| 20260504214549 | 21 | 226 | 19.3 | 40.2 | 0.00 | 0.00 | 0.00 | 37 | 1014.3 |
| 20260504213048 | 22 | 252 | 16.1 | 30.6 | 0.00 | 0.00 | 0.00 | 36 | 1014.3 |
| 20260504211540 | 22 | 234 | 16.1 | 30.6 | 0.00 | 0.00 | 0.00 | 37 | 1014.4 |
| 20260504210042 | 22 | 232 | 19.3 | 33.8 | 0.00 | 0.00 | 0.00 | 38 | 1014.4 |
| 20260504204619 | 22 | 258 | 17.7 | 32.2 | 0.00 | 0.00 | 0.00 | 38 | 1014.4 |
| 20260504203043 | 22 | 215 | 8.0 | 32.2 | 0.00 | 0.00 | 0.00 | 38 | 1014.4 |
| 20260504201542 | 22 | 213 | 17.7 | 27.4 | 0.00 | 0.00 | 0.00 | 39 | 1014.5 |
| 20260504200042 | 22 | 248 | 17.7 | 32.2 | 0.00 | 0.00 | 0.00 | 38 | 1015.0 |
| 20260504194546 | 22 | 214 | 14.5 | 27.4 | 0.00 | 0.00 | 0.00 | 36 | 1015.1 |
| 20260504193036 | 22 | 221 | 11.3 | 25.7 | 0.00 | 0.00 | 0.00 | 37 | 1015.2 |
| 20260504191535 | 22 | 246 | 9.7 | 19.3 | 0.00 | 0.00 | 0.00 | 35 | 1015.3 |
| 20260504190054 | 21 | 220 | 9.7 | 17.7 | 0.00 | 0.00 | 0.00 | 37 | 1015.5 |
| 20260504184555 | 21 | 360 | 6.4 | 19.3 | 0.00 | 0.00 | 0.00 | 39 | 1015.7 |
| 20260504183037 | 21 | 360 | 4.8 | 17.7 | 0.00 | 0.00 | 0.00 | 37 | 1015.9 |
| 20260504181544 | 22 | 232 | 11.3 | 22.5 | 0.00 | 0.00 | 0.00 | 36 | 1016.1 |
| 20260504180036 | 22 | 190 | 9.7 | 20.9 | 0.00 | 0.00 | 0.00 | 36 | 1016.0 |
| 20260504174545 | 20 | 243 | 8.0 | 22.5 | 0.00 | 0.00 | 0.00 | 38 | 1016.1 |
| 20260504173036 | 20 | 41 | 4.8 | 17.7 | 0.00 | 0.00 | 0.00 | 38 | 1016.0 |
| 20260504171543 | 19 | 67 | 14.5 | 24.1 | 0.00 | 0.00 | 0.00 | 38 | 1016.0 |